Weather reports worldwide

Advertisment
Gogerddan, United Kingdom (99150): temperature & dewpoint: 31.03.2020 15:00:00 - 06.04.2020 15:00:00 (BST)Gogerddan, United Kingdom (99150): temperature -20cm & temperature -100cm: 31.03.2020 15:00:00 - 06.04.2020 15:00:00 (BST)Gogerddan, United Kingdom (99150): precipitation: 31.03.2020 15:00:00 - 06.04.2020 15:00:00 (BST)
Date & Time tt [°C] td [°C] tt -20cm [°C] tt -100cm [°C] rr [mm]
06.04.2020 15:00:00 - - - - -
06.04.2020 14:00:00 11,5 6,7 - - 0,0
06.04.2020 13:00:00 12,0 7,9 - - 0,0
06.04.2020 12:00:00 11,8 8,0 - - 0,0
06.04.2020 11:00:00 11,6 8,1 - - 0,0
06.04.2020 10:00:00 11,3 8,2 9,5 8,4 0,0
06.04.2020 09:00:00 10,2 7,5 - - 0,0
06.04.2020 08:00:00 9,0 6,8 - - 0,0
06.04.2020 07:00:00 8,5 6,3 - - 0,0
06.04.2020 06:00:00 9,2 6,8 - - 0,0
06.04.2020 05:00:00 9,8 7,4 - - 0,0
06.04.2020 04:00:00 10,6 8,3 - - 0,0
06.04.2020 03:00:00 10,9 8,4 - - 0,0
06.04.2020 02:00:00 10,8 9,2 - - 1,0
06.04.2020 01:00:00 13,1 11,5 - - 0,0
06.04.2020 00:00:00 13,3 11,6 - - 0,6
05.04.2020 23:00:00 13,1 11,0 - - 0,4
05.04.2020 22:00:00 15,5 9,0 - - 0,0
05.04.2020 21:00:00 15,5 8,7 - - 0,0
05.04.2020 20:00:00 16,4 7,9 - - 0,0
05.04.2020 19:00:00 17,4 7,4 - - 0,0
05.04.2020 18:00:00 18,7 7,5 - - 0,0
05.04.2020 17:00:00 20,3 8,1 - - 0,0
05.04.2020 16:00:00 20,6 7,1 - - 0,0
05.04.2020 15:00:00 21,4 6,9 - - 0,0
05.04.2020 14:00:00 20,8 6,8 - - 0,0
05.04.2020 13:00:00 19,6 5,3 - - 0,0
05.04.2020 12:00:00 17,4 4,6 - - 0,0
05.04.2020 11:00:00 16,8 4,7 - - 0,0
05.04.2020 10:00:00 14,1 3,5 8,7 8,2 0,0
05.04.2020 09:00:00 13,1 3,0 - - 0,0
05.04.2020 08:00:00 12,1 3,1 - - 0,0
05.04.2020 07:00:00 11,0 2,7 - - 0,0
05.04.2020 06:00:00 10,7 2,8 - - 0,0
05.04.2020 05:00:00 9,8 3,2 - - 0,0
05.04.2020 04:00:00 6,5 2,4 - - 0,0
05.04.2020 03:00:00 8,3 3,3 - - 0,0
05.04.2020 02:00:00 10,2 2,8 - - 0,0
05.04.2020 01:00:00 10,6 2,5 - - 0,0
05.04.2020 00:00:00 11,0 2,4 - - 0,0
04.04.2020 23:00:00 10,6 2,8 - - 0,0
04.04.2020 22:00:00 11,2 3,0 - - 0,0
04.04.2020 21:00:00 11,1 3,2 - - 0,0
04.04.2020 20:00:00 12,8 4,1 - - 0,0
04.04.2020 19:00:00 13,4 5,1 - - 0,0
04.04.2020 18:00:00 14,2 4,6 - - 0,0
04.04.2020 17:00:00 14,4 6,0 - - 0,0
04.04.2020 16:00:00 14,2 5,1 - - 0,0
04.04.2020 15:00:00 14,4 5,0 - - 0,0
04.04.2020 14:00:00 13,8 5,6 - - 0,0
04.04.2020 13:00:00 12,2 5,9 - - 0,0
04.04.2020 12:00:00 11,4 5,4 - - 0,0
04.04.2020 11:00:00 11,3 5,8 - - 0,0
04.04.2020 10:00:00 9,8 6,0 8,7 8,2 0,0
04.04.2020 09:00:00 8,5 5,7 - - 0,0
04.04.2020 08:00:00 7,7 5,6 - - 0,0
04.04.2020 07:00:00 7,1 5,3 - - 0,0
04.04.2020 06:00:00 7,1 5,3 - - 0,0
04.04.2020 05:00:00 6,4 5,4 - - 0,0
04.04.2020 04:00:00 5,9 4,1 - - 0,0
04.04.2020 03:00:00 6,9 5,0 - - 0,0
04.04.2020 02:00:00 7,0 5,6 - - 0,0
04.04.2020 01:00:00 5,5 4,5 - - 0,0
04.04.2020 00:00:00 5,7 5,0 - - 0,0
03.04.2020 23:00:00 5,6 4,6 - - 0,0
03.04.2020 22:00:00 6,4 5,1 - - 0,0
03.04.2020 21:00:00 7,3 5,2 - - 0,0
03.04.2020 20:00:00 8,3 5,6 - - 0,0
03.04.2020 19:00:00 9,8 5,2 - - 0,0
03.04.2020 18:00:00 10,5 5,3 - - 0,0
03.04.2020 17:00:00 10,4 5,7 - - 0,0
03.04.2020 16:00:00 10,9 6,9 - - 0,0
03.04.2020 15:00:00 10,5 6,1 - - 0,0
03.04.2020 14:00:00 10,0 4,7 - - 0,0
03.04.2020 13:00:00 10,5 4,9 - - 0,0
03.04.2020 12:00:00 10,1 3,8 - - 0,0
03.04.2020 11:00:00 9,2 4,2 - - 0,0
03.04.2020 10:00:00 8,6 4,7 8,2 8,2 0,0
03.04.2020 09:00:00 8,2 4,8 - - 0,0
03.04.2020 08:00:00 6,0 4,7 - - 0,0
03.04.2020 07:00:00 6,0 4,2 - - 0,2
03.04.2020 06:00:00 6,6 3,5 - - 0,0
03.04.2020 05:00:00 6,7 3,2 - - 0,0
03.04.2020 04:00:00 7,3 3,4 - - 0,0
03.04.2020 03:00:00 7,2 4,5 - - 0,0
03.04.2020 02:00:00 7,5 5,2 - - 0,0
03.04.2020 01:00:00 7,6 5,9 - - 0,0
03.04.2020 00:00:00 7,8 6,4 - - 0,0
02.04.2020 23:00:00 8,1 6,5 - - 0,0
02.04.2020 22:00:00 8,4 7,5 - - 0,0
02.04.2020 21:00:00 8,2 7,6 - - 0,0
02.04.2020 20:00:00 8,1 7,5 - - 0,0
02.04.2020 19:00:00 8,6 7,9 - - 1,6
02.04.2020 18:00:00 8,7 7,7 - - 0,6
02.04.2020 17:00:00 9,6 7,0 - - 0,2
02.04.2020 16:00:00 9,5 7,0 - - 0,0
02.04.2020 15:00:00 9,9 6,7 - - 0,0
02.04.2020 14:00:00 9,2 6,4 - - 0,0
02.04.2020 13:00:00 9,0 6,5 - - 0,0
02.04.2020 12:00:00 8,5 6,7 - - 0,0
02.04.2020 11:00:00 8,2 6,5 - - 0,2
02.04.2020 10:00:00 8,4 6,8 8,0 8,2 0,0
02.04.2020 09:00:00 8,2 6,8 - - 0,0
02.04.2020 08:00:00 7,8 6,3 - - 0,0
02.04.2020 07:00:00 7,3 6,0 - - 0,0
02.04.2020 06:00:00 7,4 6,2 - - 0,0
02.04.2020 05:00:00 7,5 6,5 - - 0,2
02.04.2020 04:00:00 7,6 5,9 - - 0,2
02.04.2020 03:00:00 7,6 5,1 - - 0,0
02.04.2020 02:00:00 7,5 5,2 - - 0,0
02.04.2020 01:00:00 7,2 4,9 - - 0,0
02.04.2020 00:00:00 6,9 4,7 - - 0,0
01.04.2020 23:00:00 7,0 4,3 - - 0,0
01.04.2020 22:00:00 6,9 4,2 - - 0,0
01.04.2020 21:00:00 7,3 3,9 - - 0,0
01.04.2020 20:00:00 7,2 3,1 - - 0,0
01.04.2020 19:00:00 7,6 2,9 - - 0,0
01.04.2020 18:00:00 7,9 2,6 - - 0,0
01.04.2020 17:00:00 8,1 2,6 - - 0,0
01.04.2020 16:00:00 7,9 4,1 - - 0,0
01.04.2020 15:00:00 8,2 3,7 - - 0,0
01.04.2020 14:00:00 7,1 4,5 - - 0,0
01.04.2020 13:00:00 7,5 4,1 - - 0,0
01.04.2020 12:00:00 7,2 3,6 - - 0,0
01.04.2020 11:00:00 6,8 3,8 - - 0,0
01.04.2020 10:00:00 5,9 3,1 7,7 8,2 0,0
01.04.2020 09:00:00 4,6 2,1 - - 0,0
01.04.2020 08:00:00 3,7 1,8 - - 0,0
01.04.2020 07:00:00 3,3 0,8 - - 0,0
01.04.2020 06:00:00 3,2 0,9 - - 0,0
01.04.2020 05:00:00 3,0 0,5 - - 0,0
01.04.2020 04:00:00 2,8 0,4 - - 0,0
01.04.2020 03:00:00 2,1 0,5 - - 0,0
01.04.2020 02:00:00 1,2 -1,1 - - 0,0
01.04.2020 01:00:00 3,2 0,1 - - 0,0
01.04.2020 00:00:00 3,1 -0,2 - - 0,0
31.03.2020 23:00:00 3,4 0,1 - - 0,0
31.03.2020 22:00:00 4,7 0,5 - - 0,0
31.03.2020 21:00:00 7,0 0,3 - - 0,0
31.03.2020 20:00:00 8,0 0,8 - - 0,0
31.03.2020 19:00:00 9,0 0,8 - - 0,0
31.03.2020 18:00:00 9,8 0,7 - - 0,0
31.03.2020 17:00:00 10,2 0,9 - - 0,0
31.03.2020 16:00:00 10,2 1,5 - - 0,0
31.03.2020 15:00:00 9,7 0,6 - - 0,0

tt = temperature
td = dewpoint
tt -20cm = temperature -20cm
tt -100cm = temperature -100cm
rr = precipitation

Next stations